Time,TemperatureF,DewpointF,PressureIn,WindDirection,WindDirectionDegrees,WindSpeedMPH,WindSpeedGustMPH,Humidity,HourlyPrecipIn,Conditions,Clouds,dailyrainin,SoftwareType,DateUTC
2013-02-20 00:00:00,24.0,18.4,29.12,WSW,257,5.8,5.8,79,0.00,RA,,0.00,WeatherDisplay:10.37,2013-02-20 05:00:00,
2013-02-20 00:01:00,24.0,18.4,29.12,West,264,10.1,10.1,79,0.00,RA,,0.00,WeatherDisplay:10.37,2013-02-20 05:01:00,
2013-02-20 00:02:00,23.9,18.3,29.12,WSW,244,12.7,12.7,79,0.00,RA,,0.00,WeatherDisplay:10.37,2013-02-20 05:02:00,
2013-02-20 00:07:00,23.9,18.0,29.12,West,264,11.5,11.5,78,0.00,RA,,0.00,WeatherDisplay:10.37,2013-02-20 05:07:00,
2013-02-20 00:12:00,24.0,18.1,29.13,WSW,254,11.5,11.5,78,0.00,CLR,,0.00,WeatherDisplay:10.37,2013-02-20 05:12:00,
2013-02-20 00:17:00,23.9,17.4,29.12,SSW,200,9.2,9.2,76,0.00,CLR,,0.00,WeatherDisplay:10.37,2013-02-20 05:17:00,
2013-02-20 00:22:00,23.7,17.2,29.12,WSW,250,11.5,11.5,76,0.00,CLR,,0.00,WeatherDisplay:10.37,2013-02-20 05:22:00,
2013-02-20 00:27:00,23.7,17.2,29.13,West,261,10.4,10.4,76,0.00,CLR,,0.00,WeatherDisplay:10.37,2013-02-20 05:27:00,
2013-02-20 00:32:00,23.7,17.2,29.13,West,261,9.2,9.2,76,0.00,CLR,,0.00,WeatherDisplay:10.37,2013-02-20 05:32:00,
2013-02-20 00:37:00,23.5,17.3,29.13,WSW,244,5.8,5.8,77,0.00,CLR,,0.00,WeatherDisplay:10.37,2013-02-20 05:37:00,
2013-02-20 00:42:00,23.3,16.9,29.13,WSW,251,9.9,9.9,76,0.00,CLR,,0.00,WeatherDisplay:10.37,2013-02-20 05:42:00,
2013-02-20 00:47:00,23.3,16.9,29.13,WSW,246,9.7,9.7,76,0.00,CLR,,0.00,WeatherDisplay:10.37,2013-02-20 05:47:00,
2013-02-20 00:52:00,23.1,16.4,29.13,West,265,8.3,8.3,75,0.00,CLR,,0.00,WeatherDisplay:10.37,2013-02-20 05:52:00,
2013-02-20 00:57:00,23.1,16.4,29.13,WSW,256,11.2,11.2,75,0.00,CLR,,0.00,WeatherDisplay:10.37,2013-02-20 05:57:00,
2013-02-20 01:02:00,23.1,16.0,29.13,West,275,10.4,10.4,74,0.00,CLR,,0.00,WeatherDisplay:10.37,2013-02-20 06:02:00,
2013-02-20 01:07:00,23.1,16.0,29.14,WNW,291,6.2,6.2,74,0.00,CLR,,0.00,WeatherDisplay:10.37,2013-02-20 06:07:00,
2013-02-20 01:12:00,23.0,15.6,29.14,WSW,239,13.8,13.8,73,0.00,CLR,,0.00,WeatherDisplay:10.37,2013-02-20 06:12:00,
2013-02-20 01:17:00,23.0,15.6,29.15,WSW,246,9.2,9.2,73,0.00,CLR,,0.00,WeatherDisplay:10.37,2013-02-20 06:17:00,
2013-02-20 01:22:00,22.8,14.8,29.14,West,280,12.7,12.7,71,0.00,CLR,,0.00,WeatherDisplay:10.37,2013-02-20 06:22:00,
2013-02-20 01:27:00,22.6,14.6,29.15,West,268,12.7,12.7,71,0.00,CLR,,0.00,WeatherDisplay:10.37,2013-02-20 06:27:00,
2013-02-20 01:32:00,22.4,14.4,29.14,WSW,248,10.4,10.4,71,0.00,CLR,,0.00,WeatherDisplay:10.37,2013-02-20 06:32:00,
2013-02-20 01:37:00,22.4,14.4,29.14,NNE,14,11.5,11.5,71,0.00,CLR,,0.00,WeatherDisplay:10.37,2013-02-20 06:37:00,
2013-02-20 01:42:00,22.2,14.2,29.14,WSW,248,11.5,11.5,71,0.00,CLR,,0.00,WeatherDisplay:10.37,2013-02-20 06:42:00,
2013-02-20 01:47:00,22.2,14.2,29.15,SW,220,10.4,10.4,71,0.00,CLR,,0.00,WeatherDisplay:10.37,2013-02-20 06:47:00,
2013-02-20 01:52:00,22.1,13.8,29.14,WSW,239,8.1,8.1,70,0.00,CLR,,0.00,WeatherDisplay:10.37,2013-02-20 06:52:00,
2013-02-20 01:57:00,22.1,14.1,29.14,SW,234,10.4,10.4,71,0.00,CLR,,0.00,WeatherDisplay:10.37,2013-02-20 06:57:00,
2013-02-20 02:02:00,22.1,14.1,29.15,WNW,282,9.2,9.2,71,0.00,CLR,,0.00,WeatherDisplay:10.37,2013-02-20 07:02:00,
2013-02-20 02:07:00,22.1,14.1,29.16,West,275,13.8,13.8,71,0.00,CLR,,0.00,WeatherDisplay:10.37,2013-02-20 07:07:00,
2013-02-20 02:12:00,22.1,14.4,29.16,WSW,256,6.9,6.9,72,0.00,CLR,,0.00,WeatherDisplay:10.37,2013-02-20 07:12:00,
2013-02-20 02:17:00,21.9,13.9,29.15,West,261,5.8,5.8,71,0.00,CLR,,0.00,WeatherDisplay:10.37,2013-02-20 07:17:00,
2013-02-20 02:22:00,21.7,14.1,29.16,WSW,251,5.8,5.8,72,0.00,CLR,,0.00,WeatherDisplay:10.37,2013-02-20 07:22:00,
2013-02-20 02:27:00,21.7,14.4,29.16,WSW,246,9.7,9.7,73,0.00,CLR,,0.00,WeatherDisplay:10.37,2013-02-20 07:27:00,
2013-02-20 02:32:00,21.5,14.2,29.16,West,268,10.4,10.4,73,0.00,CLR,,0.00,WeatherDisplay:10.37,2013-02-20 07:32:00,
2013-02-20 02:37:00,21.3,14.0,29.16,West,271,10.4,10.4,73,0.00,CLR,,0.00,WeatherDisplay:10.37,2013-02-20 07:37:00,
2013-02-20 02:42:00,21.2,13.6,29.15,WSW,248,11.5,11.5,72,0.00,CLR,,0.00,WeatherDisplay:10.37,2013-02-20 07:42:00,
2013-02-20 02:47:00,21.3,14.0,29.16,WSW,251,8.1,8.1,73,0.00,CLR,,0.00,WeatherDisplay:10.37,2013-02-20 07:47:00,
2013-02-20 02:52:00,21.2,14.2,29.16,SW,220,10.4,10.4,74,0.00,CLR,,0.00,WeatherDisplay:10.37,2013-02-20 07:52:00,
2013-02-20 02:57:00,21.0,14.3,29.16,West,278,11.5,11.5,75,0.00,CLR,,0.00,WeatherDisplay:10.37,2013-02-20 07:57:00,
2013-02-20 03:05:00,20.9,14.2,29.16,WSW,252,6.0,12.0,75,0.00,CLR,,0.00,WeatherDisplay:10.37,2013-02-20 08:05:00,
2013-02-20 03:10:00,20.8,14.4,29.16,WSW,239,6.9,6.9,76,0.00,CLR,,0.00,WeatherDisplay:10.37,2013-02-20 08:10:00,
2013-02-20 03:15:00,20.8,14.4,29.18,WSW,239,10.4,10.4,76,0.00,CLR,,0.00,WeatherDisplay:10.37,2013-02-20 08:15:00,
2013-02-20 03:20:00,20.5,14.1,29.16,SW,215,8.1,8.1,76,0.00,CLR,,0.00,WeatherDisplay:10.37,2013-02-20 08:20:00,
2013-02-20 03:25:00,20.3,14.2,29.16,SSW,203,9.2,9.2,77,0.00,CLR,,0.00,WeatherDisplay:10.37,2013-02-20 08:25:00,
2013-02-20 03:30:00,20.3,14.2,29.17,SW,236,9.8,9.8,77,0.00,CLR,,0.00,WeatherDisplay:10.37,2013-02-20 08:30:00,
2013-02-20 03:35:00,20.1,14.0,29.16,WSW,246,9.2,9.2,77,0.00,CLR,,0.00,WeatherDisplay:10.37,2013-02-20 08:35:00,
2013-02-20 03:40:00,20.3,13.9,29.17,WSW,258,8.1,8.1,76,0.00,CLR,,0.00,WeatherDisplay:10.37,2013-02-20 08:40:00,
2013-02-20 03:45:00,20.3,13.6,29.17,West,264,16.2,16.2,75,0.00,CLR,,0.00,WeatherDisplay:10.37,2013-02-20 08:45:00,
2013-02-20 03:50:00,20.3,13.6,29.17,ENE,66,10.4,10.4,75,0.00,CLR,,0.00,WeatherDisplay:10.37,2013-02-20 08:50:00,
2013-02-20 03:55:00,20.3,13.6,29.18,WSW,257,8.1,8.1,75,0.00,CLR,,0.00,WeatherDisplay:10.37,2013-02-20 08:55:00,
2013-02-20 04:00:00,20.3,13.3,29.17,West,270,7.5,7.5,74,0.00,CLR,,0.00,WeatherDisplay:10.37,2013-02-20 09:00:00,
2013-02-20 04:05:00,20.3,13.3,29.18,WSW,256,8.2,8.2,74,0.00,CLR,,0.00,WeatherDisplay:10.37,2013-02-20 09:05:00,
2013-02-20 04:10:00,20.3,13.3,29.18,West,265,10.4,10.4,74,0.00,CLR,,0.00,WeatherDisplay:10.37,2013-02-20 09:10:00,
2013-02-20 04:15:00,20.3,13.3,29.18,SSW,209,9.2,9.2,74,0.00,CLR,,0.00,WeatherDisplay:10.37,2013-02-20 09:15:00,
2013-02-20 04:20:00,20.1,13.1,29.18,WSW,254,9.9,9.9,74,0.00,CLR,,0.00,WeatherDisplay:10.37,2013-02-20 09:20:00,
2013-02-20 04:25:00,20.1,13.1,29.18,WSW,251,11.2,11.2,74,0.00,CLR,,0.00,WeatherDisplay:10.37,2013-02-20 09:25:00,
2013-02-20 04:30:00,19.9,12.9,29.17,WSW,254,10.4,10.4,74,0.00,CLR,,0.00,WeatherDisplay:10.37,2013-02-20 09:30:00,
2013-02-20 04:35:00,19.7,12.8,29.18,West,271,9.2,9.2,74,0.00,CLR,,0.00,WeatherDisplay:10.37,2013-02-20 09:35:00,
2013-02-20 04:40:00,19.6,13.0,29.18,West,280,10.4,10.4,75,0.00,CLR,,0.00,WeatherDisplay:10.37,2013-02-20 09:40:00,
2013-02-20 04:45:00,19.6,13.0,29.17,West,271,6.4,6.4,75,0.00,CLR,,0.00,WeatherDisplay:10.37,2013-02-20 09:45:00,
2013-02-20 04:50:00,19.6,12.7,29.18,WSW,239,9.2,9.2,74,0.00,CLR,,0.00,WeatherDisplay:10.37,2013-02-20 09:50:00,
2013-02-20 04:55:00,19.6,12.7,29.18,WSW,237,10.4,10.4,74,0.00,CLR,,0.00,WeatherDisplay:10.37,2013-02-20 09:55:00,
2013-02-20 05:00:00,19.6,13.0,29.18,WSW,248,8.5,8.5,75,0.00,CLR,,0.00,WeatherDisplay:10.37,2013-02-20 10:00:00,
2013-02-20 05:05:00,19.6,13.0,29.19,WSW,251,8.1,8.1,75,0.00,CLR,,0.00,WeatherDisplay:10.37,2013-02-20 10:05:00,
2013-02-20 05:10:00,19.6,13.0,29.19,SW,226,9.8,9.8,75,0.00,CLR,,0.00,WeatherDisplay:10.37,2013-02-20 10:10:00,
2013-02-20 05:15:00,19.4,12.8,29.19,West,261,11.5,11.5,75,0.00,CLR,,0.00,WeatherDisplay:10.37,2013-02-20 10:15:00,
2013-02-20 05:20:00,19.2,12.6,29.19,SW,229,12.2,12.2,75,0.00,CLR,,0.00,WeatherDisplay:10.37,2013-02-20 10:20:00,
2013-02-20 05:25:00,19.4,12.8,29.20,West,271,9.2,9.2,75,0.00,CLR,,0.00,WeatherDisplay:10.37,2013-02-20 10:25:00,
2013-02-20 05:30:00,19.0,12.7,29.19,West,260,8.1,8.1,76,0.00,CLR,,0.00,WeatherDisplay:10.37,2013-02-20 10:30:00,
2013-02-20 05:35:00,19.0,12.7,29.19,West,264,6.9,6.9,76,0.00,CLR,,0.00,WeatherDisplay:10.37,2013-02-20 10:35:00,
2013-02-20 05:40:00,18.8,12.8,29.20,West,272,13.2,13.2,77,0.00,CLR,,0.00,WeatherDisplay:10.37,2013-02-20 10:40:00,
2013-02-20 05:45:00,18.8,13.1,29.20,West,271,9.2,9.2,78,0.00,CLR,,0.00,WeatherDisplay:10.37,2013-02-20 10:45:00,
2013-02-20 05:50:00,18.7,12.7,29.20,West,264,11.5,11.5,77,0.00,CLR,,0.00,WeatherDisplay:10.37,2013-02-20 10:50:00,
2013-02-20 05:55:00,18.7,13.0,29.20,West,281,8.1,8.1,78,0.00,CLR,,0.00,WeatherDisplay:10.37,2013-02-20 10:55:00,
2013-02-20 06:00:00,18.5,13.1,29.20,West,264,8.1,8.1,79,0.00,CLR,,0.00,WeatherDisplay:10.37,2013-02-20 11:00:00,
2013-02-20 06:05:00,18.3,12.6,29.19,SW,224,5.8,5.8,78,0.00,CLR,,0.00,WeatherDisplay:10.37,2013-02-20 11:05:00,
2013-02-20 06:10:00,18.1,12.7,29.19,WSW,239,6.9,6.9,79,0.00,CLR,,0.00,WeatherDisplay:10.37,2013-02-20 11:10:00,
2013-02-20 06:15:00,18.3,13.2,29.20,West,280,9.2,9.2,80,0.00,CLR,,0.00,WeatherDisplay:10.37,2013-02-20 11:15:00,
2013-02-20 06:20:00,18.1,12.7,29.20,West,268,6.9,6.9,79,0.00,CLR,,0.00,WeatherDisplay:10.37,2013-02-20 11:20:00,
2013-02-20 06:25:00,18.3,13.2,29.20,WSW,246,6.9,6.9,80,0.00,CLR,,0.00,WeatherDisplay:10.37,2013-02-20 11:25:00,
2013-02-20 06:30:00,18.3,13.2,29.20,West,261,8.1,8.1,80,0.00,CLR,,0.00,WeatherDisplay:10.37,2013-02-20 11:30:00,
2013-02-20 06:35:00,18.1,13.0,29.20,WSW,256,5.8,5.8,80,0.00,CLR,,0.00,WeatherDisplay:10.37,2013-02-20 11:35:00,
2013-02-20 06:40:00,18.1,13.0,29.20,WSW,256,3.5,3.5,80,0.00,CLR,,0.00,WeatherDisplay:10.37,2013-02-20 11:40:00,
2013-02-20 06:45:00,17.9,12.8,29.20,WSW,256,6.9,6.9,80,0.00,CLR,,0.00,WeatherDisplay:10.37,2013-02-20 11:45:00,
2013-02-20 06:50:00,17.9,12.5,29.20,SW,232,8.1,8.1,79,0.00,CLR,,0.00,WeatherDisplay:10.37,2013-02-20 11:50:00,
2013-02-20 06:55:00,17.9,12.2,29.21,West,272,4.6,4.6,78,0.00,CLR,,0.00,WeatherDisplay:10.37,2013-02-20 11:55:00,
2013-02-20 07:00:00,17.9,12.2,29.21,SW,227,4.6,4.6,78,0.00,CLR,,0.00,WeatherDisplay:10.37,2013-02-20 12:00:00,
2013-02-20 07:05:00,17.9,12.5,29.21,West,261,8.8,8.8,79,0.00,CLR,,0.00,WeatherDisplay:10.37,2013-02-20 12:05:00,
2013-02-20 07:10:00,17.9,12.2,29.21,SW,215,6.9,6.9,78,0.00,CLR,,0.00,WeatherDisplay:10.37,2013-02-20 12:10:00,
2013-02-20 07:15:00,17.9,11.9,29.21,WSW,253,8.1,8.1,77,0.00,CLR,,0.00,WeatherDisplay:10.37,2013-02-20 12:15:00,
2013-02-20 07:20:00,18.1,11.8,29.22,WNW,282,11.5,11.5,76,0.00,CLR,,0.00,WeatherDisplay:10.37,2013-02-20 12:20:00,
2013-02-20 07:25:00,17.9,11.3,29.22,WSW,244,9.2,9.2,75,0.00,CLR,,0.00,WeatherDisplay:10.37,2013-02-20 12:25:00,
2013-02-20 07:30:00,17.8,11.2,29.22,West,272,9.2,9.2,75,0.00,CLR,,0.00,WeatherDisplay:10.37,2013-02-20 12:30:00,
2013-02-20 07:35:00,17.6,11.0,29.22,West,265,9.2,9.2,75,0.00,CLR,,0.00,WeatherDisplay:10.37,2013-02-20 12:35:00,
2013-02-20 07:40:00,17.4,10.5,29.22,WSW,251,11.5,11.5,74,0.00,CLR,,0.00,WeatherDisplay:10.37,2013-02-20 12:40:00,
2013-02-20 07:45:00,17.4,10.5,29.22,WSW,257,9.2,9.2,74,0.00,CLR,,0.00,WeatherDisplay:10.37,2013-02-20 12:45:00,
2013-02-20 07:50:00,17.6,10.7,29.22,West,280,12.7,12.7,74,0.00,CLR,,0.00,WeatherDisplay:10.37,2013-02-20 12:50:00,
2013-02-20 07:55:00,17.6,10.4,29.22,West,268,12.7,12.7,73,0.00,CLR,,0.00,WeatherDisplay:10.37,2013-02-20 12:55:00,
2013-02-20 08:00:00,17.8,10.3,29.22,WSW,257,17.3,17.3,72,0.00,CLR,,0.00,WeatherDisplay:10.37,2013-02-20 13:00:00,
2013-02-20 08:05:00,17.8,10.6,29.23,West,272,11.2,11.2,73,0.00,CLR,,0.00,WeatherDisplay:10.37,2013-02-20 13:05:00,
2013-02-20 08:10:00,17.9,10.7,29.23,West,261,10.3,10.3,73,0.00,CLR,,0.00,WeatherDisplay:10.37,2013-02-20 13:10:00,
2013-02-20 08:15:00,17.9,10.7,29.23,WNW,282,9.2,9.2,73,0.00,CLR,,0.00,WeatherDisplay:10.37,2013-02-20 13:15:00,
2013-02-20 08:20:00,18.1,10.9,29.23,SW,233,9.2,9.2,73,0.00,CLR,,0.00,WeatherDisplay:10.37,2013-02-20 13:20:00,
2013-02-20 08:25:00,18.3,10.8,29.23,West,272,12.5,12.5,72,0.00,CLR,,0.00,WeatherDisplay:10.37,2013-02-20 13:25:00,
2013-02-20 08:30:00,18.7,10.9,29.23,West,268,10.4,10.4,71,0.00,CLR,,0.00,WeatherDisplay:10.37,2013-02-20 13:30:00,
2013-02-20 08:35:00,18.7,11.2,29.23,WSW,239,15.4,15.4,72,0.00,CLR,,0.00,WeatherDisplay:10.37,2013-02-20 13:35:00,
2013-02-20 08:40:00,18.8,11.3,29.24,West,264,11.5,11.5,72,0.00,CLR,,0.00,WeatherDisplay:10.37,2013-02-20 13:40:00,
2013-02-20 08:45:00,18.8,10.9,29.24,WSW,251,10.4,10.4,71,0.00,CLR,,0.00,WeatherDisplay:10.37,2013-02-20 13:45:00,
2013-02-20 08:50:00,18.7,11.2,29.23,NW,305,16.1,16.1,72,0.00,CLR,,0.00,WeatherDisplay:10.37,2013-02-20 13:50:00,
2013-02-20 08:55:00,18.7,11.2,29.24,West,272,11.5,11.5,72,0.00,CLR,,0.00,WeatherDisplay:10.37,2013-02-20 13:55:00,
2013-02-20 09:00:00,18.5,11.0,29.24,West,264,10.4,10.4,72,0.00,CLR,,0.00,WeatherDisplay:10.37,2013-02-20 14:00:00,
2013-02-20 09:05:00,18.5,11.3,29.24,SW,230,18.4,18.4,73,0.00,CLR,,0.00,WeatherDisplay:10.37,2013-02-20 14:05:00,
2013-02-20 09:10:00,18.5,11.0,29.24,West,271,17.7,17.7,72,0.00,CLR,,0.00,WeatherDisplay:10.37,2013-02-20 14:10:00,
2013-02-20 09:15:00,18.5,11.6,29.24,West,274,15.0,15.0,74,0.00,CLR,,0.00,WeatherDisplay:10.37,2013-02-20 14:15:00,
2013-02-20 09:20:00,18.5,11.6,29.24,SW,226,11.5,11.5,74,0.00,CLR,,0.00,WeatherDisplay:10.37,2013-02-20 14:20:00,
2013-02-20 09:25:00,18.7,12.1,29.25,West,272,12.7,12.7,75,0.00,CLR,,0.00,WeatherDisplay:10.37,2013-02-20 14:25:00,
2013-02-20 09:30:00,18.7,12.1,29.25,West,278,9.2,9.2,75,0.00,CLR,,0.00,WeatherDisplay:10.37,2013-02-20 14:30:00,
2013-02-20 09:35:00,18.8,12.2,29.24,West,278,12.7,12.7,75,0.00,CLR,,0.00,WeatherDisplay:10.37,2013-02-20 14:35:00,
2013-02-20 09:40:00,19.0,12.7,29.25,West,274,13.8,13.8,76,0.00,CLR,,0.00,WeatherDisplay:10.37,2013-02-20 14:40:00,
2013-02-20 09:45:00,18.8,12.5,29.25,West,268,11.5,11.5,76,0.00,CLR,,0.00,WeatherDisplay:10.37,2013-02-20 14:45:00,
2013-02-20 09:50:00,19.0,13.0,29.25,WSW,257,13.8,13.8,77,0.00,CLR,,0.00,WeatherDisplay:10.37,2013-02-20 14:50:00,
2013-02-20 09:55:00,19.2,13.2,29.26,WNW,282,10.4,10.4,77,0.00,CLR,,0.00,WeatherDisplay:10.37,2013-02-20 14:55:00,
2013-02-20 10:00:00,19.4,13.1,29.25,West,281,6.9,6.9,76,0.00,CLR,,0.00,WeatherDisplay:10.37,2013-02-20 15:00:00,
2013-02-20 10:05:00,19.7,14.0,29.26,WSW,256,8.1,8.1,78,0.00,CLR,,0.00,WeatherDisplay:10.37,2013-02-20 15:05:00,
2013-02-20 10:11:00,19.9,13.9,29.25,WNW,289,10.4,10.4,77,0.00,CLR,,0.00,WeatherDisplay:10.37,2013-02-20 15:11:00,
2013-02-20 10:16:00,20.3,14.5,29.26,WNW,302,9.2,9.2,78,0.00,CLR,,0.00,WeatherDisplay:10.37,2013-02-20 15:16:00,
2013-02-20 10:21:00,20.3,14.5,29.25,West,271,6.9,6.9,78,0.00,CLR,,0.00,WeatherDisplay:10.37,2013-02-20 15:21:00,
2013-02-20 10:26:00,20.6,14.5,29.26,NW,306,6.9,6.9,77,0.00,CLR,,0.00,WeatherDisplay:10.37,2013-02-20 15:26:00,
2013-02-20 10:31:00,20.8,14.7,29.25,NW,306,11.5,11.5,77,0.00,CLR,,0.00,WeatherDisplay:10.37,2013-02-20 15:31:00,
2013-02-20 10:36:00,21.0,14.6,29.26,West,268,6.9,6.9,76,0.00,CLR,,0.00,WeatherDisplay:10.37,2013-02-20 15:36:00,
2013-02-20 10:41:00,20.8,13.8,29.27,WNW,298,10.4,10.4,74,0.00,CLR,,0.00,WeatherDisplay:10.37,2013-02-20 15:41:00,
2013-02-20 10:46:00,20.6,13.3,29.28,WNW,287,16.1,16.1,73,0.00,CLR,,0.00,WeatherDisplay:10.37,2013-02-20 15:46:00,
2013-02-20 10:51:00,20.8,13.2,29.27,NW,325,8.1,8.1,72,0.00,CLR,,0.00,WeatherDisplay:10.37,2013-02-20 15:51:00,
2013-02-20 10:56:00,21.2,12.9,29.26,WNW,282,17.3,17.3,70,0.00,CLR,,0.00,WeatherDisplay:10.37,2013-02-20 15:56:00,
2013-02-20 11:01:00,21.3,13.0,29.27,WNW,289,11.5,11.5,70,0.00,CLR,,0.00,WeatherDisplay:10.37,2013-02-20 16:01:00,
2013-02-20 11:06:00,21.7,12.8,29.28,North,0,9.2,9.2,68,0.00,CLR,,0.00,WeatherDisplay:10.37,2013-02-20 16:06:00,
2013-02-20 11:11:00,21.7,13.1,29.28,WNW,299,8.1,8.1,69,0.00,CLR,,0.00,WeatherDisplay:10.37,2013-02-20 16:11:00,
2013-02-20 11:16:00,21.7,12.8,29.28,WNW,295,10.4,10.4,68,0.00,CLR,,0.00,WeatherDisplay:10.37,2013-02-20 16:16:00,
2013-02-20 11:21:00,21.3,12.0,29.28,WNW,291,8.3,8.3,67,0.00,CLR,,0.00,WeatherDisplay:10.37,2013-02-20 16:21:00,
2013-02-20 11:26:00,21.2,12.3,29.28,WNW,291,12.7,12.7,68,0.00,CLR,,0.00,WeatherDisplay:10.37,2013-02-20 16:26:00,
2013-02-20 11:31:00,21.2,12.3,29.28,WNW,298,13.2,13.2,68,0.00,CLR,,0.00,WeatherDisplay:10.37,2013-02-20 16:31:00,
2013-02-20 11:36:00,21.5,12.2,29.29,NW,313,11.5,11.5,67,0.00,CLR,,0.00,WeatherDisplay:10.37,2013-02-20 16:36:00,
2013-02-20 11:41:00,21.7,12.8,29.29,WNW,291,13.8,13.8,68,0.00,CLR,,0.00,WeatherDisplay:10.37,2013-02-20 16:41:00,
2013-02-20 11:46:00,21.7,12.8,29.29,NNW,336,10.4,10.4,68,0.00,CLR,,0.00,WeatherDisplay:10.37,2013-02-20 16:46:00,
2013-02-20 11:51:00,21.9,13.0,29.29,WNW,299,10.4,10.4,68,0.00,CLR,,0.00,WeatherDisplay:10.37,2013-02-20 16:51:00,
2013-02-20 11:56:00,22.4,13.4,29.29,NW,309,10.4,10.4,68,0.00,CLR,,0.00,WeatherDisplay:10.37,2013-02-20 16:56:00,
2013-02-20 12:01:00,23.0,14.0,29.29,West,278,9.2,9.2,68,0.01,RA,,0.01,WeatherDisplay:10.37,2013-02-20 17:01:00,
2013-02-20 12:06:00,23.5,13.8,29.31,West,281,15.0,15.0,66,0.01,RA,,0.01,WeatherDisplay:10.37,2013-02-20 17:06:00,
2013-02-20 12:11:00,23.1,12.4,29.31,West,278,15.0,15.0,63,0.01,,,0.01,WeatherDisplay:10.37,2013-02-20 17:11:00,
2013-02-20 12:16:00,23.0,12.6,29.30,WNW,282,15.0,15.0,64,0.01,CLR,,0.01,WeatherDisplay:10.37,2013-02-20 17:16:00,
2013-02-20 12:21:00,23.1,12.7,29.30,West,272,8.1,8.1,64,0.01,CLR,,0.01,WeatherDisplay:10.37,2013-02-20 17:21:00,
2013-02-20 12:26:00,23.0,12.3,29.30,West,272,16.1,16.1,63,0.01,CLR,,0.01,WeatherDisplay:10.37,2013-02-20 17:26:00,
2013-02-20 12:31:00,22.6,11.5,29.31,WNW,284,13.8,13.8,62,0.01,CLR,,0.01,WeatherDisplay:10.37,2013-02-20 17:31:00,
2013-02-20 12:36:00,22.8,12.1,29.31,West,280,10.4,10.4,63,0.01,CLR,,0.01,WeatherDisplay:10.37,2013-02-20 17:36:00,
2013-02-20 12:41:00,22.6,11.5,29.32,NW,318,12.7,12.7,62,0.01,CLR,,0.01,WeatherDisplay:10.37,2013-02-20 17:41:00,
2013-02-20 12:46:00,21.7,10.3,29.30,West,280,13.8,13.8,61,0.01,CLR,,0.01,WeatherDisplay:10.37,2013-02-20 17:46:00,
2013-02-20 12:51:00,21.5,10.5,29.31,WNW,298,11.5,11.5,62,0.01,CLR,,0.01,WeatherDisplay:10.37,2013-02-20 17:51:00,
2013-02-20 12:57:00,21.9,11.2,29.32,WNW,291,11.5,11.5,63,0.01,CLR,,0.01,WeatherDisplay:10.37,2013-02-20 17:57:00,
2013-02-20 13:01:00,21.9,10.9,29.31,NW,309,13.8,13.8,62,0.00,CLR,,0.01,WeatherDisplay:10.37,2013-02-20 18:01:00,
2013-02-20 13:06:00,21.3,10.7,29.32,NNW,343,6.9,6.9,63,0.00,CLR,,0.01,WeatherDisplay:10.37,2013-02-20 18:06:00,
2013-02-20 13:11:00,21.0,10.0,29.31,WNW,282,13.8,13.8,62,0.00,CLR,,0.01,WeatherDisplay:10.37,2013-02-20 18:11:00,
2013-02-20 13:17:00,21.2,10.6,29.32,WNW,296,9.2,9.2,63,0.00,CLR,,0.01,WeatherDisplay:10.37,2013-02-20 18:17:00,
2013-02-20 13:22:00,21.5,10.8,29.32,NW,305,11.5,11.5,63,0.00,CLR,,0.01,WeatherDisplay:10.37,2013-02-20 18:22:00,
2013-02-20 13:27:00,21.7,10.7,29.32,NW,313,13.8,13.8,62,0.00,CLR,,0.01,WeatherDisplay:10.37,2013-02-20 18:27:00,
2013-02-20 13:32:00,21.5,10.5,29.33,NW,311,11.5,11.5,62,0.00,CLR,,0.01,WeatherDisplay:10.37,2013-02-20 18:32:00,
2013-02-20 13:36:00,21.5,10.8,29.33,NW,313,13.8,13.8,63,0.00,CLR,,0.01,WeatherDisplay:10.37,2013-02-20 18:36:00,
2013-02-20 13:42:00,21.3,10.7,29.32,WNW,287,12.8,12.8,63,0.00,CLR,,0.01,WeatherDisplay:10.37,2013-02-20 18:42:00,
2013-02-20 13:47:00,21.5,10.8,29.32,West,271,16.1,16.1,63,0.00,CLR,,0.01,WeatherDisplay:10.37,2013-02-20 18:47:00,
2013-02-20 13:52:00,21.5,11.2,29.32,NW,319,10.4,10.4,64,0.00,CLR,,0.01,WeatherDisplay:10.37,2013-02-20 18:52:00,
2013-02-20 13:57:00,21.5,10.8,29.33,WNW,287,14.9,14.9,63,0.00,CLR,,0.01,WeatherDisplay:10.37,2013-02-20 18:57:00,
2013-02-20 14:02:00,21.7,11.0,29.33,NW,304,13.8,13.8,63,0.00,CLR,,0.01,WeatherDisplay:10.37,2013-02-20 19:02:00,
2013-02-20 14:07:00,21.9,11.2,29.34,NW,313,10.4,10.4,63,0.00,CLR,,0.01,WeatherDisplay:10.37,2013-02-20 19:07:00,
2013-02-20 14:12:00,21.5,10.8,29.33,NW,318,6.9,6.9,63,0.00,CLR,,0.01,WeatherDisplay:10.37,2013-02-20 19:12:00,
2013-02-20 14:17:00,21.7,11.4,29.34,WNW,284,6.9,6.9,64,0.00,CLR,,0.01,WeatherDisplay:10.37,2013-02-20 19:17:00,
2013-02-20 14:22:00,21.5,10.8,29.34,WNW,287,9.2,9.2,63,0.00,CLR,,0.01,WeatherDisplay:10.37,2013-02-20 19:22:00,
2013-02-20 14:27:00,21.5,10.8,29.34,NNW,330,8.1,8.1,63,0.00,CLR,,0.01,WeatherDisplay:10.37,2013-02-20 19:27:00,
2013-02-20 14:32:00,21.5,11.5,29.34,WNW,282,10.4,10.4,65,0.00,CLR,,0.01,WeatherDisplay:10.37,2013-02-20 19:32:00,
2013-02-20 14:37:00,21.7,11.4,29.35,NW,309,8.1,8.1,64,0.00,CLR,,0.01,WeatherDisplay:10.37,2013-02-20 19:37:00,
2013-02-20 14:42:00,21.5,11.2,29.34,NNW,333,6.7,6.7,64,0.00,CLR,,0.01,WeatherDisplay:10.37,2013-02-20 19:42:00,
2013-02-20 14:47:00,21.5,11.2,29.36,West,264,5.8,5.8,64,0.00,CLR,,0.01,WeatherDisplay:10.37,2013-02-20 19:47:00,
2013-02-20 14:52:00,21.5,10.8,29.35,WNW,302,8.1,8.1,63,0.00,CLR,,0.01,WeatherDisplay:10.37,2013-02-20 19:52:00,
2013-02-20 14:57:00,21.7,11.7,29.36,NW,309,9.2,9.2,65,0.00,CLR,,0.01,WeatherDisplay:10.37,2013-02-20 19:57:00,
2013-02-20 15:02:00,21.5,10.8,29.36,NW,313,10.4,10.4,63,0.00,CLR,,0.01,WeatherDisplay:10.37,2013-02-20 20:02:00,
2013-02-20 15:07:00,21.3,11.0,29.36,NW,316,9.5,9.5,64,0.00,CLR,,0.01,WeatherDisplay:10.37,2013-02-20 20:07:00,
2013-02-20 15:12:00,21.5,11.5,29.37,WNW,292,8.1,8.1,65,0.00,CLR,,0.01,WeatherDisplay:10.37,2013-02-20 20:12:00,
2013-02-20 15:17:00,21.2,11.3,29.36,NNW,339,4.9,4.9,65,0.00,CLR,,0.01,WeatherDisplay:10.37,2013-02-20 20:17:00,
2013-02-20 15:22:00,21.3,11.4,29.36,NW,311,11.9,11.9,65,0.00,CLR,,0.01,WeatherDisplay:10.37,2013-02-20 20:22:00,
2013-02-20 15:27:00,21.2,11.3,29.36,NW,318,11.5,11.5,65,0.00,CLR,,0.01,WeatherDisplay:10.37,2013-02-20 20:27:00,
2013-02-20 15:32:00,21.7,12.1,29.37,WNW,296,10.4,10.4,66,0.00,CLR,,0.01,WeatherDisplay:10.37,2013-02-20 20:32:00,
2013-02-20 15:37:00,21.7,11.4,29.37,WNW,299,13.8,13.8,64,0.00,CLR,,0.01,WeatherDisplay:10.37,2013-02-20 20:37:00,
2013-02-20 15:42:00,21.9,11.9,29.37,WNW,282,9.2,9.2,65,0.00,CLR,,0.01,WeatherDisplay:10.37,2013-02-20 20:42:00,
2013-02-20 15:47:00,21.7,11.7,29.38,WNW,285,8.1,8.1,65,0.00,CLR,,0.01,WeatherDisplay:10.37,2013-02-20 20:47:00,
2013-02-20 15:52:00,21.7,11.7,29.37,West,280,11.5,11.5,65,0.00,CLR,,0.01,WeatherDisplay:10.37,2013-02-20 20:52:00,
2013-02-20 15:57:00,21.5,11.5,29.39,West,277,13.8,13.8,65,0.00,CLR,,0.01,WeatherDisplay:10.37,2013-02-20 20:57:00,
2013-02-20 16:02:00,21.5,11.9,29.38,WNW,285,12.7,12.7,66,0.00,CLR,,0.01,WeatherDisplay:10.37,2013-02-20 21:02:00,
2013-02-20 16:07:00,21.3,11.7,29.38,West,281,11.5,11.5,66,0.00,CLR,,0.01,WeatherDisplay:10.37,2013-02-20 21:07:00,
2013-02-20 16:12:00,21.5,11.5,29.39,NW,305,11.5,11.5,65,0.00,CLR,,0.01,WeatherDisplay:10.37,2013-02-20 21:12:00,
2013-02-20 16:17:00,21.3,11.4,29.38,WNW,287,12.8,12.8,65,0.00,CLR,,0.01,WeatherDisplay:10.37,2013-02-20 21:17:00,
2013-02-20 16:22:00,21.3,11.7,29.39,WNW,289,10.4,11.1,66,0.00,CLR,,0.01,WeatherDisplay:10.37,2013-02-20 21:22:00,
2013-02-20 16:27:00,21.3,11.7,29.39,West,261,15.2,15.2,66,0.00,CLR,,0.01,WeatherDisplay:10.37,2013-02-20 21:27:00,
2013-02-20 16:32:00,21.2,11.6,29.39,WNW,287,12.7,12.7,66,0.00,CLR,,0.01,WeatherDisplay:10.37,2013-02-20 21:32:00,
2013-02-20 16:37:00,21.0,11.1,29.38,WNW,291,10.4,10.4,65,0.00,CLR,,0.01,WeatherDisplay:10.37,2013-02-20 21:37:00,
2013-02-20 16:42:00,21.0,11.4,29.39,WNW,296,6.9,6.9,66,0.00,CLR,,0.01,WeatherDisplay:10.37,2013-02-20 21:42:00,
2013-02-20 16:47:00,21.0,11.8,29.39,West,268,7.0,7.0,67,0.00,CLR,,0.01,WeatherDisplay:10.37,2013-02-20 21:47:00,
2013-02-20 16:52:00,20.8,11.6,29.39,NNW,346,11.5,11.5,67,0.00,CLR,,0.01,WeatherDisplay:10.37,2013-02-20 21:52:00,
2013-02-20 16:57:00,20.6,11.0,29.40,WNW,287,11.5,11.5,66,0.00,CLR,,0.01,WeatherDisplay:10.37,2013-02-20 21:57:00,
2013-02-20 17:02:00,20.3,11.1,29.41,WNW,296,9.2,9.2,67,0.00,CLR,,0.01,WeatherDisplay:10.37,2013-02-20 22:02:00,
2013-02-20 17:07:00,20.3,11.4,29.41,WSW,248,12.7,12.7,68,0.00,CLR,,0.01,WeatherDisplay:10.37,2013-02-20 22:07:00,
2013-02-20 17:12:00,20.3,11.4,29.41,West,272,12.7,12.7,68,0.00,CLR,,0.01,WeatherDisplay:10.37,2013-02-20 22:12:00,
2013-02-20 17:17:00,20.1,11.2,29.42,WNW,302,13.8,13.8,68,0.00,CLR,,0.01,WeatherDisplay:10.37,2013-02-20 22:17:00,
2013-02-20 17:22:00,20.1,11.2,29.42,NW,306,11.5,11.5,68,0.00,CLR,,0.01,WeatherDisplay:10.37,2013-02-20 22:22:00,
2013-02-20 17:27:00,20.1,11.2,29.42,WNW,284,11.2,11.2,68,0.00,CLR,,0.01,WeatherDisplay:10.37,2013-02-20 22:27:00,
2013-02-20 17:32:00,19.9,10.7,29.42,WNW,302,13.8,13.8,67,0.00,CLR,,0.01,WeatherDisplay:10.37,2013-02-20 22:32:00,
2013-02-20 17:37:00,19.9,11.0,29.43,WNW,298,15.0,15.0,68,0.00,CLR,,0.01,WeatherDisplay:10.37,2013-02-20 22:37:00,
2013-02-20 17:42:00,19.9,11.4,29.43,WNW,298,5.7,5.7,69,0.00,CLR,,0.01,WeatherDisplay:10.37,2013-02-20 22:42:00,
2013-02-20 17:48:00,19.7,11.2,29.42,West,281,8.1,8.1,69,0.00,CLR,,0.01,WeatherDisplay:10.37,2013-02-20 22:48:00,
2013-02-20 17:53:00,19.7,11.2,29.43,WNW,302,9.9,9.9,69,0.00,CLR,,0.01,WeatherDisplay:10.37,2013-02-20 22:53:00,
2013-02-20 17:58:00,19.7,11.5,29.44,NW,320,9.2,9.2,70,0.00,CLR,,0.01,WeatherDisplay:10.37,2013-02-20 22:58:00,
2013-02-20 18:03:00,19.6,11.4,29.42,West,261,9.7,9.7,70,0.00,CLR,,0.01,WeatherDisplay:10.37,2013-02-20 23:03:00,
2013-02-20 18:08:00,19.7,11.5,29.44,WNW,282,4.3,4.3,70,0.00,CLR,,0.01,WeatherDisplay:10.37,2013-02-20 23:08:00,
2013-02-20 18:13:00,19.6,11.4,29.43,WNW,296,5.8,5.8,70,0.00,CLR,,0.01,WeatherDisplay:10.37,2013-02-20 23:13:00,
2013-02-20 18:18:00,19.4,11.5,29.43,WNW,287,11.5,11.5,71,0.00,CLR,,0.01,WeatherDisplay:10.37,2013-02-20 23:18:00,
2013-02-20 18:23:00,19.4,11.5,29.43,NW,305,15.0,15.0,71,0.00,CLR,,0.01,WeatherDisplay:10.37,2013-02-20 23:23:00,
2013-02-20 18:28:00,19.2,11.6,29.43,WNW,285,10.4,10.4,72,0.00,CLR,,0.01,WeatherDisplay:10.37,2013-02-20 23:28:00,
2013-02-20 18:33:00,19.4,11.5,29.43,WNW,282,11.5,11.5,71,0.00,CLR,,0.01,WeatherDisplay:10.37,2013-02-20 23:33:00,
2013-02-20 18:38:00,19.2,11.3,29.43,WNW,296,12.7,12.7,71,0.00,CLR,,0.01,WeatherDisplay:10.37,2013-02-20 23:38:00,
2013-02-20 18:43:00,19.0,11.1,29.43,West,272,5.8,5.8,71,0.00,CLR,,0.01,WeatherDisplay:10.37,2013-02-20 23:43:00,
2013-02-20 18:48:00,19.0,11.1,29.43,WNW,285,10.4,10.4,71,0.00,CLR,,0.01,WeatherDisplay:10.37,2013-02-20 23:48:00,
2013-02-20 18:53:00,19.2,11.3,29.44,WNW,287,11.5,11.5,71,0.00,CLR,,0.01,WeatherDisplay:10.37,2013-02-20 23:53:00,
2013-02-20 18:58:00,19.2,11.0,29.44,WNW,299,10.4,10.4,70,0.00,CLR,,0.01,WeatherDisplay:10.37,2013-02-20 23:58:00,
2013-02-20 19:03:00,19.4,11.5,29.44,SW,216,8.1,8.1,71,0.00,CLR,,0.01,WeatherDisplay:10.37,2013-02-21 00:03:00,
2013-02-20 19:08:00,19.4,11.2,29.44,NW,306,9.2,9.2,70,0.00,CLR,,0.01,WeatherDisplay:10.37,2013-02-21 00:08:00,
2013-02-20 19:13:00,19.4,11.5,29.44,West,265,10.4,10.4,71,0.00,CLR,,0.01,WeatherDisplay:10.37,2013-02-21 00:13:00,
2013-02-20 19:18:00,19.4,11.2,29.44,NW,308,9.2,9.2,70,0.00,CLR,,0.01,WeatherDisplay:10.37,2013-02-21 00:18:00,
2013-02-20 19:23:00,19.6,11.4,29.44,West,275,12.7,12.7,70,0.00,CLR,,0.01,WeatherDisplay:10.37,2013-02-21 00:23:00,
2013-02-20 19:28:00,19.6,11.4,29.45,WNW,287,15.0,15.0,70,0.00,CLR,,0.01,WeatherDisplay:10.37,2013-02-21 00:28:00,
2013-02-20 19:33:00,19.6,11.7,29.45,WNW,296,10.4,10.4,71,0.00,CLR,,0.01,WeatherDisplay:10.37,2013-02-21 00:33:00,
2013-02-20 19:38:00,19.4,11.5,29.44,WNW,287,11.5,11.5,71,0.00,CLR,,0.01,WeatherDisplay:10.37,2013-02-21 00:38:00,
2013-02-20 19:43:00,19.4,11.8,29.44,West,268,10.4,10.4,72,0.00,CLR,,0.01,WeatherDisplay:10.37,2013-02-21 00:43:00,
2013-02-20 19:48:00,19.4,11.8,29.45,WNW,299,8.1,8.1,72,0.00,CLR,,0.01,WeatherDisplay:10.37,2013-02-21 00:48:00,
2013-02-20 19:53:00,19.4,11.8,29.45,WNW,282,12.7,12.7,72,0.00,CLR,,0.01,WeatherDisplay:10.37,2013-02-21 00:53:00,
2013-02-20 19:58:00,19.4,11.8,29.45,West,278,12.7,12.7,72,0.00,CLR,,0.01,WeatherDisplay:10.37,2013-02-21 00:58:00,
2013-02-20 20:03:00,19.4,11.8,29.45,WNW,291,9.2,9.2,72,0.00,CLR,,0.01,WeatherDisplay:10.37,2013-02-21 01:03:00,
2013-02-20 20:08:00,19.4,11.8,29.45,WNW,299,9.2,9.2,72,0.00,CLR,,0.01,WeatherDisplay:10.37,2013-02-21 01:08:00,
2013-02-20 20:13:00,19.4,11.8,29.45,West,272,4.9,4.9,72,0.00,CLR,,0.01,WeatherDisplay:10.37,2013-02-21 01:13:00,
2013-02-20 20:18:00,19.6,12.0,29.46,WNW,284,9.2,9.2,72,0.00,CLR,,0.01,WeatherDisplay:10.37,2013-02-21 01:18:00,
2013-02-20 20:23:00,19.6,12.0,29.45,WNW,299,10.4,10.4,72,0.00,CLR,,0.01,WeatherDisplay:10.37,2013-02-21 01:23:00,
2013-02-20 20:28:00,19.6,12.3,29.45,WNW,291,5.8,5.8,73,0.00,CLR,,0.01,WeatherDisplay:10.37,2013-02-21 01:28:00,
2013-02-20 20:33:00,19.6,12.0,29.45,WNW,296,8.1,8.1,72,0.00,CLR,,0.01,WeatherDisplay:10.37,2013-02-21 01:33:00,
2013-02-20 20:38:00,19.6,12.3,29.45,WNW,296,6.7,6.7,73,0.00,CLR,,0.01,WeatherDisplay:10.37,2013-02-21 01:38:00,
2013-02-20 20:43:00,19.6,12.3,29.45,WNW,282,6.9,6.9,73,0.00,CLR,,0.01,WeatherDisplay:10.37,2013-02-21 01:43:00,
2013-02-20 20:48:00,19.4,12.5,29.45,West,272,10.4,10.4,74,0.00,CLR,,0.01,WeatherDisplay:10.37,2013-02-21 01:48:00,
2013-02-20 20:53:00,19.2,12.3,29.45,West,272,8.1,8.1,74,0.00,CLR,,0.01,WeatherDisplay:10.37,2013-02-21 01:53:00,
2013-02-20 20:58:00,19.2,12.3,29.45,WNW,284,8.1,8.1,74,0.00,CLR,,0.01,WeatherDisplay:10.37,2013-02-21 01:58:00,
2013-02-20 21:03:00,19.2,12.3,29.45,WNW,291,8.1,8.1,74,0.00,CLR,,0.01,WeatherDisplay:10.37,2013-02-21 02:03:00,
2013-02-20 21:08:00,19.2,12.3,29.45,West,278,9.0,9.0,74,0.00,CLR,,0.01,WeatherDisplay:10.37,2013-02-21 02:08:00,
2013-02-20 21:13:00,19.0,11.8,29.45,WNW,296,9.2,9.2,73,0.00,CLR,,0.01,WeatherDisplay:10.37,2013-02-21 02:13:00,
2013-02-20 21:18:00,19.2,12.6,29.45,West,264,5.8,5.8,75,0.00,CLR,,0.01,WeatherDisplay:10.37,2013-02-21 02:18:00,
2013-02-20 21:23:00,19.2,12.3,29.45,WNW,298,9.2,9.2,74,0.00,CLR,,0.01,WeatherDisplay:10.37,2013-02-21 02:23:00,
2013-02-20 21:28:00,19.0,12.1,29.45,WNW,296,11.4,11.4,74,0.00,CLR,,0.01,WeatherDisplay:10.37,2013-02-21 02:28:00,
2013-02-20 21:33:00,19.2,12.3,29.47,West,272,5.8,5.8,74,0.00,CLR,,0.01,WeatherDisplay:10.37,2013-02-21 02:33:00,
2013-02-20 21:38:00,19.2,12.6,29.46,West,278,8.1,8.1,75,0.00,CLR,,0.01,WeatherDisplay:10.37,2013-02-21 02:38:00,
2013-02-20 21:43:00,19.2,12.3,29.46,West,264,6.9,6.9,74,0.00,CLR,,0.01,WeatherDisplay:10.37,2013-02-21 02:43:00,
2013-02-20 21:48:00,19.0,12.4,29.46,WNW,284,5.8,5.8,75,0.00,CLR,,0.01,WeatherDisplay:10.37,2013-02-21 02:48:00,
2013-02-20 21:53:00,19.0,12.4,29.47,West,275,6.9,6.9,75,0.00,CLR,,0.01,WeatherDisplay:10.37,2013-02-21 02:53:00,
2013-02-20 21:58:00,19.0,12.4,29.46,WNW,282,10.4,10.4,75,0.00,CLR,,0.01,WeatherDisplay:10.37,2013-02-21 02:58:00,
2013-02-20 22:03:00,19.0,12.4,29.47,WNW,289,8.1,8.1,75,0.00,CLR,,0.01,WeatherDisplay:10.37,2013-02-21 03:03:00,
2013-02-20 22:08:00,19.0,12.4,29.46,WNW,282,8.5,8.5,75,0.00,CLR,,0.01,WeatherDisplay:10.37,2013-02-21 03:08:00,
2013-02-20 22:13:00,19.0,12.4,29.46,WNW,291,12.7,12.7,75,0.00,CLR,,0.01,WeatherDisplay:10.37,2013-02-21 03:13:00,
2013-02-20 22:18:00,19.2,12.6,29.47,West,271,8.1,8.1,75,0.00,CLR,,0.01,WeatherDisplay:10.37,2013-02-21 03:18:00,
2013-02-20 22:23:00,19.0,12.4,29.46,West,272,9.2,9.2,75,0.00,CLR,,0.01,WeatherDisplay:10.37,2013-02-21 03:23:00,
2013-02-20 22:28:00,18.8,11.9,29.46,West,280,10.4,10.4,74,0.00,CLR,,0.01,WeatherDisplay:10.37,2013-02-21 03:28:00,
2013-02-20 22:33:00,18.7,11.8,29.47,NW,316,6.9,6.9,74,0.00,CLR,,0.01,WeatherDisplay:10.37,2013-02-21 03:33:00,
2013-02-20 22:38:00,17.8,11.2,29.46,NNW,340,6.1,6.1,75,0.00,CLR,,0.01,WeatherDisplay:10.37,2013-02-21 03:38:00,
2013-02-20 22:43:00,17.4,11.4,29.46,NNW,344,4.2,4.2,77,0.00,CLR,,0.01,WeatherDisplay:10.37,2013-02-21 03:43:00,
2013-02-20 22:48:00,17.2,11.2,29.46,NW,306,5.8,5.8,77,0.00,CLR,,0.01,WeatherDisplay:10.37,2013-02-21 03:48:00,
2013-02-20 22:53:00,17.2,11.2,29.46,NW,316,5.8,5.8,77,0.00,CLR,,0.01,WeatherDisplay:10.37,2013-02-21 03:53:00,
2013-02-20 22:58:00,17.0,10.4,29.46,NW,304,8.1,8.1,75,0.00,CLR,,0.01,WeatherDisplay:10.37,2013-02-21 03:58:00,
2013-02-20 23:03:00,16.9,10.6,29.45,NW,309,5.8,5.8,76,0.00,CLR,,0.01,WeatherDisplay:10.37,2013-02-21 04:03:00,
2013-02-20 23:08:00,16.9,10.3,29.46,NW,309,9.2,9.2,75,0.00,CLR,,0.01,WeatherDisplay:10.37,2013-02-21 04:08:00,
2013-02-20 23:13:00,16.7,9.8,29.46,WNW,299,9.2,9.2,74,0.00,CLR,,0.01,WeatherDisplay:10.37,2013-02-21 04:13:00,
2013-02-20 23:18:00,16.7,9.8,29.47,NNW,333,10.4,10.4,74,0.00,CLR,,0.01,WeatherDisplay:10.37,2013-02-21 04:18:00,
2013-02-20 23:23:00,16.7,9.8,29.46,West,265,6.1,6.1,74,0.00,CLR,,0.01,WeatherDisplay:10.37,2013-02-21 04:23:00,
2013-02-20 23:28:00,16.7,9.8,29.47,West,275,6.0,6.0,74,0.00,CLR,,0.01,WeatherDisplay:10.37,2013-02-21 04:28:00,
2013-02-20 23:33:00,16.9,10.0,29.46,WNW,296,10.4,10.4,74,0.00,CLR,,0.01,WeatherDisplay:10.37,2013-02-21 04:33:00,
2013-02-20 23:38:00,16.9,9.7,29.46,NW,306,10.4,10.4,73,0.00,CLR,,0.01,WeatherDisplay:10.37,2013-02-21 04:38:00,
2013-02-20 23:43:00,16.9,9.7,29.46,West,278,12.7,12.7,73,0.00,CLR,,0.01,WeatherDisplay:10.37,2013-02-21 04:43:00,
2013-02-20 23:48:00,16.9,10.0,29.45,West,277,11.5,11.5,74,0.00,CLR,,0.01,WeatherDisplay:10.37,2013-02-21 04:48:00,
2013-02-20 23:53:00,16.9,9.7,29.46,WNW,296,10.4,10.4,73,0.00,CLR,,0.01,WeatherDisplay:10.37,2013-02-21 04:53:00,
2013-02-20 23:58:00,16.7,9.2,29.46,NW,325,8.1,8.1,72,0.00,CLR,,0.01,WeatherDisplay:10.37,2013-02-21 04:58:00,